DW2080 Weather Reports


Display with metric or nautical units.
time (UTC)temp
F
wind
direction
speed
MPH
gust
MPH
rain 1hr
in
rain 24hr
in
rain mn
in
humidity
%
barometer
mb
20220818074534 81 254 0.0 1.0 0.00 0.00 0.00 83 1014.0
20220818073056 81 251 0.0 1.0 0.00 0.00 0.00 83 1013.9
20220818071532 81 254 0.0 0.0 0.00 0.00 0.00 83 1013.7
20220818070036 81 255 0.0 2.0 0.00 0.00 0.00 83 1013.6
20220818064541 81 250 0.0 2.0 0.00 0.00 0.00 83 1013.5
20220818063034 81 234 0.0 3.0 0.00 0.00 0.00 83 1013.6
20220818061527 81 252 0.0 1.0 0.00 0.00 0.00 82 1013.8
20220818060032 82 250 0.0 0.0 0.00 0.00 0.00 82 1014.0
20220818054524 82 258 0.0 1.0 0.00 0.00 0.00 82 1013.7
20220818053022 82 263 0.0 1.0 0.00 0.00 0.00 82 1013.8
20220818051521 82 237 0.0 4.0 0.00 0.00 0.00 82 1013.6
20220818050035 82 250 0.0 3.0 0.00 0.00 0.00 81 1013.7
20220818044517 82 246 0.0 2.0 0.00 0.00 0.00 81 1013.7
20220818043017 83 248 0.0 1.0 0.00 0.00 0.00 81 1013.7
20220818041536 83 250 0.0 0.0 0.00 0.00 0.00 81 1013.7
20220818040016 83 244 0.0 0.0 0.00 0.00 0.00 80 1013.8
20220818034524 84 243 0.0 0.0 0.00 0.00 0.00 80 1013.9
20220818033022 84 242 0.0 0.0 0.00 0.00 0.00 80 1013.9
20220818031521 84 239 0.0 4.0 0.00 0.00 0.00 79 1013.9
20220818030017 84 238 1.0 6.0 0.00 0.00 0.00 80 1013.7
20220818024513 84 240 1.0 7.0 0.00 0.00 0.00 79 1013.3
20220818023016 85 227 1.0 8.0 0.00 0.00 0.00 79 1013.2
20220818021524 85 236 2.0 7.0 0.00 0.00 0.00 79 1013.0
20220818020011 85 227 3.0 11.0 0.00 0.00 0.00 78 1012.7
20220818014510 85 228 2.0 10.0 0.00 0.00 0.00 78 1012.7
20220818013009 86 224 4.0 8.0 0.00 0.00 0.00 77 1012.7
20220818011523 86 232 3.0 10.0 0.00 0.00 0.00 77 1012.7
20220818010009 86 215 4.0 11.0 0.00 0.00 0.00 76 1012.8
20220818004528 87 225 2.0 9.0 0.00 0.00 0.00 75 1012.8
20220818003005 87 142 4.0 9.0 0.00 0.00 0.00 74 1012.9
20220818001506 88 195 3.0 10.0 0.00 0.00 0.00 73 1013.0
20220818000010 88 269 2.0 13.0 0.00 0.00 0.00 72 1013.0
20220817234502 89 208 2.0 9.0 0.00 0.00 0.00 71 1013.1
20220817233001 89 222 2.0 12.0 0.00 0.00 0.00 70 1013.1
20220817231600 90 221 5.0 10.0 0.00 0.00 0.00 69 1013.3
20220817230132 90 148 2.0 10.0 0.00 0.00 0.00 69 1013.3
20220817224619 91 244 4.0 14.0 0.00 0.00 0.00 69 1013.3
20220817223140 91 230 4.0 11.0 0.00 0.00 0.00 68 1013.3
20220817221615 92 162 4.0 10.0 0.00 0.00 0.00 66 1013.4
20220817220123 93 156 2.0 13.0 0.00 0.00 0.00 66 1013.4
20220817214600 93 253 4.0 10.0 0.00 0.00 0.00 66 1013.4
20220817213113 94 163 3.0 10.0 0.00 0.00 0.00 65 1013.5
20220817211551 94 172 5.0 12.0 0.00 0.00 0.00 66 1013.6
20220817210056 94 133 6.0 13.0 0.00 0.00 0.00 66 1013.9
20220817204627 94 140 7.0 12.0 0.00 0.00 0.00 66 1013.9
20220817203043 94 130 5.0 12.0 0.00 0.00 0.00 66 1014.0
20220817201537 94 154 4.0 15.0 0.00 0.00 0.00 65 1014.0
20220817200036 94 152 7.0 12.0 0.00 0.00 0.00 63 1014.3
20220817194544 94 133 6.0 12.0 0.00 0.00 0.00 64 1014.4
20220817193059 94 105 6.0 11.0 0.00 0.00 0.00 64 1014.6
20220817191535 95 99 8.0 12.0 0.00 0.00 0.00 64 1014.7
20220817190040 95 105 7.0 11.0 0.00 0.00 0.00 65 1014.9
20220817184524 94 100 6.0 9.0 0.00 0.00 0.00 66 1014.9
20220817183019 93 91 5.0 9.0 0.00 0.00 0.00 67 1014.9
20220817181516 91 92 4.0 7.0 0.00 0.00 0.00 69 1014.9
20220817180036 90 73 3.0 6.0 0.00 0.00 0.00 71 1015.1
20220817174512 89 49 4.0 9.0 0.00 0.00 0.00 71 1015.3
20220817173012 91 24 2.0 5.0 0.00 0.00 0.00 69 1015.3
20220817171512 93 348 4.0 9.0 0.00 0.00 0.00 66 1015.4
20220817170007 92 322 3.0 10.0 0.00 0.00 0.00 65 1015.6
20220817164510 91 227 3.0 7.0 0.00 0.00 0.00 66 1015.7
20220817163001 92 309 7.0 13.0 0.00 0.00 0.00 66 1015.8
20220817161718 90 265 3.0 12.0 0.00 0.00 0.00 68 1016.0
20220817160110 89 270 4.0 10.0 0.00 0.00 0.00 74 1016.0
20220817154559 88 313 4.0 10.0 0.00 0.00 0.00 73 1016.1
20220817153053 88 320 3.0 10.0 0.00 0.00 0.00 75 1015.9
20220817151551 88 304 6.0 10.0 0.00 0.00 0.00 74 1015.8
20220817150047 88 321 5.0 9.0 0.00 0.00 0.00 76 1015.9
20220817144548 87 287 4.0 11.0 0.00 0.00 0.00 77 1015.9
20220817143050 87 298 4.0 9.0 0.00 0.00 0.00 77 1016.0
20220817141604 87 302 6.0 10.0 0.00 0.00 0.00 79 1016.1
20220817140048 85 286 5.0 8.0 0.00 0.00 0.00 81 1016.1
20220817134640 84 313 2.0 6.0 0.00 0.00 0.00 82 1016.1
20220817133023 82 309 3.0 5.0 0.00 0.00 0.00 83 1016.0
20220817131520 82 313 0.0 0.0 0.00 0.00 0.00 84 1016.0
20220817130017 81 313 0.0 1.0 0.00 0.00 0.00 84 1015.8
20220817124520 80 267 0.0 0.0 0.00 0.00 0.00 84 1015.7
20220817123008 79 103 0.0 0.0 0.00 0.00 0.00 84 1015.5
20220817121515 79 298 0.0 0.0 0.00 0.00 0.00 84 1015.5
20220817120005 79 298 0.0 0.0 0.00 0.00 0.00 84 1015.2
20220817114502 79 298 0.0 1.0 0.00 0.00 0.00 84 1014.9
20220817113001 79 272 0.0 0.0 0.00 0.00 0.00 84 1014.9
20220817111616 79 269 0.0 0.0 0.00 0.00 0.00 84 1014.7
20220817110213 79 268 0.0 0.0 0.00 0.00 0.00 84 1014.6
20220817104602 79 265 0.0 0.0 0.00 0.00 0.00 84 1014.5
20220817103056 79 242 0.0 0.0 0.00 0.00 0.00 84 1014.4
20220817101559 79 242 0.0 0.0 0.00 0.00 0.00 84 1014.3
20220817100106 79 229 0.0 0.0 0.00 0.00 0.00 84 1014.3
20220817094553 79 229 0.0 0.0 0.00 0.00 0.00 84 1014.2
20220817093052 79 229 0.0 0.0 0.00 0.00 0.00 84 1014.1
20220817091554 79 229 0.0 0.0 0.00 0.00 0.00 84 1014.1
20220817090121 79 229 0.0 0.0 0.00 0.00 0.00 84 1014.2
20220817084619 79 229 0.0 0.0 0.00 0.00 0.00 84 1014.0
20220817083103 79 229 0.0 0.0 0.00 0.00 0.00 84 1014.1
20220817081547 79 229 0.0 0.0 0.00 0.00 0.00 83 1014.0
20220817080108 80 229 0.0 0.0 0.00 0.00 0.00 83 1013.8